P/2010 JC81 ( WISE )

Japanese version
Home page
Updated on February 21, 2012

---------------------------------------------------------------------

* Profile

Discovery Date May 10, 2010
Magnitude
Discoverer Wide Field Infrared Survey Explorer (NASA)

* Pictures

* Orbital Elements

Epoch 2011 Apr. 29.0 TT = JDT 2455680.5
T 2011 Apr. 26.56264 TT                                 MPC
q   1.8107212            (2000.0)            P               Q
n   0.04243196     Peri.   12.57284     +0.75172356     -0.57675991
a   8.1409292      Node    30.76789     +0.53791245     +0.25571840
e   0.7775781      Incl.   38.69005     +0.38152573     +0.77585830
P  23.2
From 229 observations 2010 May 10-2011 Nov. 30, mean residual 0".5.

* Finding Charts

* Magnitudes Graph

        H = 13.0  G = 0.15                       [    ,-120]  (             - 2010 Dec. 27)
        m1 = 7.0 + 5 log d + 20.0 log r(t - 75)  [-120,    ]  (2010 Dec. 27 -             )

---------------------------------------------------------------------

The orbital elements are published on M.P.E.C. 2011-X25.
The charts are made with StellaNavigator Ver.8 (AstroArts).
The magnitudes graphs are made with Comet for Windows.

---------------------------------------------------------------------

Copyright(C) Seiichi Yoshida (comet@aerith.net). All rights reserved.